Weather History for Tehachapi, CA

Change the Weather History Date:

Thursday, April 4, 2013

  Actual Average Record
Temperature  
Mean Temperature 52 °F -  
Max Temperature 62 °F 62 °F 62 °F (2013)
Min Temperature 41 °F 35 °F 37 °F (2012)
Degree Days  
Heating Degree Days 14    
Growing Degree Days 2 (Base 50)    
Moisture  
Dew Point 41 °F    
Average Humidity 67    
Maximum Humidity 88    
Minimum Humidity 36    
Precipitation  
Precipitation 0.00 in - - ()
Sea Level Pressure  
Sea Level Pressure 30.11 in    
Wind  
Wind Speed 8 mph (NW)    
Max Wind Speed 22 mph    
Max Gust Speed 29 mph    
Visibility 10 miles    
Events      
Averages and records for this station are not official NWS values.
T = Trace of Precipitation, MM = Missing Value Source: NWS Daily Summary

Daily Weather History Graph

Daily Weather History Graph

Search for Another Location

Airport:

Trip Planner

Search our weather history database for the weather conditions in past years. The results will help you decide how hot, cold, wet, or windy it might be!

Date:

Astronomy

Apr. 04, 2013 Rise Set
Actual Time 6:35 AM PDT 7:17 PM PDT
Civil Twilight 6:10 AM PDT 7:43 PM PDT
Nautical Twilight 5:40 AM PDT 8:13 PM PDT
Astronomical Twilight 5:09 AM PDT 8:44 PM PDT
Moon 2:53 AM PDT (4/4) 1:53 PM PDT (4/4)
Length of Visible Light 13h 33m
Length of Day
12h 41m
Waning Crescent, 32% of the Moon is Illuminated
Apr 4
Waning Crescent
Apr 10
New
Apr 18
First Quarter
Apr 25
Full
May 2
Last Quarter

Hourly Weather History & Observations

Time (PDT) Temp. Windchill Dew Point Humidity Pressure Visibility Wind Dir Wind Speed Gust Speed Precip Events Conditions
12:15 AM 46.4 °F 45.2 °F 39.2 °F 76% 30.15 in 10.0 mi SE 3.5 mph - N/A   Clear
12:35 AM 44.6 °F - 39.2 °F 81% 30.14 in 10.0 mi Calm Calm - N/A   Clear
12:55 AM 46.4 °F 44.3 °F 37.4 °F 71% 30.14 in 10.0 mi ESE 4.6 mph - N/A   Clear
1:15 AM 44.6 °F 42.2 °F 37.4 °F 76% 30.13 in 10.0 mi SE 4.6 mph - N/A   Clear
1:35 AM 44.6 °F 42.2 °F 37.4 °F 76% 30.13 in 10.0 mi ESE 4.6 mph - N/A   Clear
1:55 AM 46.4 °F - 37.4 °F 71% 30.13 in 10.0 mi Calm Calm - N/A   Clear
2:15 AM 46.4 °F 43.5 °F 37.4 °F 71% 30.12 in 10.0 mi East 5.8 mph - N/A   Clear
2:35 AM 46.4 °F 45.2 °F 35.6 °F 66% 30.12 in 10.0 mi East 3.5 mph - N/A   Clear
2:55 AM 44.6 °F - 35.6 °F 71% 30.11 in 10.0 mi Calm Calm - N/A   Clear
3:15 AM 44.6 °F - 37.4 °F 76% 30.11 in 10.0 mi Calm Calm - N/A   Clear
3:35 AM 44.6 °F 43.1 °F 35.6 °F 71% 30.10 in 10.0 mi SE 3.5 mph - N/A   Clear
3:55 AM 42.8 °F - 35.6 °F 76% 30.10 in 10.0 mi Calm Calm - N/A   Clear
4:15 AM 44.6 °F - 35.6 °F 71% 30.10 in 10.0 mi Calm Calm - N/A   Clear
4:35 AM 42.8 °F - 35.6 °F 76% 30.10 in 10.0 mi Calm Calm - N/A   Clear
4:55 AM 41.0 °F - 35.6 °F 81% 30.10 in 10.0 mi Calm Calm - N/A   Clear
5:15 AM 41.0 °F 39.0 °F 35.6 °F 81% 30.10 in 10.0 mi ESE 3.5 mph - N/A   Clear
5:35 AM 41.0 °F - 35.6 °F 81% 30.10 in 10.0 mi Calm Calm - N/A   Clear
5:55 AM 41.0 °F - 35.6 °F 81% 30.09 in 10.0 mi Calm Calm - N/A   Clear
6:15 AM 42.8 °F - 35.6 °F 76% 30.10 in 10.0 mi Calm Calm - N/A   Clear
6:35 AM 41.0 °F - 35.6 °F 81% 30.10 in 10.0 mi Calm Calm - N/A   Clear
6:55 AM 44.6 °F - 35.6 °F 71% 30.11 in 10.0 mi Calm Calm - N/A   Clear
7:15 AM 44.6 °F 43.1 °F 37.4 °F 76% 30.13 in 10.0 mi West 3.5 mph - N/A   Clear
7:35 AM 53.6 °F - 42.8 °F 67% 30.14 in 9.0 mi WNW 12.7 mph - N/A   Clear
7:55 AM 53.6 °F - 42.8 °F 67% 30.13 in 8.0 mi West 4.6 mph - N/A   Clear
8:15 AM 55.4 °F - 44.6 °F 67% 30.14 in 8.0 mi WNW 8.1 mph - N/A   Clear
8:35 AM 57.2 °F - 44.6 °F 63% 30.14 in 8.0 mi NW 10.4 mph - N/A   Clear
8:55 AM 57.2 °F - 44.6 °F 63% 30.15 in 8.0 mi WNW 12.7 mph - N/A   Clear
9:55 AM 59.0 °F - 44.6 °F 59% 30.17 in 9.0 mi NW 17.3 mph 23.0 mph N/A   Mostly Cloudy
10:15 AM 57.2 °F - 41.0 °F 55% 30.17 in 9.0 mi NW 21.9 mph 26.5 mph N/A   Overcast
10:35 AM 55.4 °F - 35.6 °F 47% 30.17 in 10.0 mi NW 18.4 mph 25.3 mph N/A   Overcast
10:55 AM 57.2 °F - 30.2 °F 36% 30.18 in 10.0 mi NW 19.6 mph 26.5 mph N/A   Overcast
11:15 AM 59.0 °F - 32.0 °F 36% 30.18 in 10.0 mi NW 18.4 mph 25.3 mph N/A   Scattered Clouds
11:35 AM 59.0 °F - 37.4 °F 45% 30.17 in 10.0 mi NW 20.7 mph 28.8 mph N/A   Scattered Clouds
11:55 AM 60.8 °F - 37.4 °F 42% 30.16 in 10.0 mi NW 20.7 mph 26.5 mph N/A   Partly Cloudy
12:15 PM 59.0 °F - 37.4 °F 45% 30.16 in 10.0 mi NW 20.7 mph 26.5 mph N/A   Partly Cloudy
12:35 PM 62.6 °F - 37.4 °F 39% 30.15 in 10.0 mi NW 17.3 mph 23.0 mph N/A   Partly Cloudy
12:55 PM 62.6 °F - 37.4 °F 39% 30.15 in 10.0 mi NW 18.4 mph 25.3 mph N/A   Scattered Clouds
1:15 PM 62.6 °F - 39.2 °F 42% 30.14 in 10.0 mi WNW 18.4 mph 25.3 mph N/A   Mostly Cloudy
1:35 PM 62.6 °F - 39.2 °F 42% 30.14 in 10.0 mi NW 18.4 mph 24.2 mph N/A   Scattered Clouds
1:55 PM - - - N/A% - 10.0 mi North - - N/A   Unknown
2:15 PM - - - N/A% - - North - - N/A   Unknown
2:35 PM - - - N/A% - - North - - N/A   Unknown
2:55 PM - - - N/A% - - North - - N/A   Unknown
3:15 PM - - - N/A% - - North - - N/A   Unknown
3:35 PM 59.0 °F - 44.6 °F 59% 30.10 in 10.0 mi NW 18.4 mph 23.0 mph N/A   Unknown
3:55 PM 59.0 °F - 44.6 °F 59% 30.09 in 10.0 mi NNW 17.3 mph 23.0 mph N/A   Mostly Cloudy
4:15 PM 59.0 °F - 44.6 °F 59% 30.09 in 10.0 mi NW 15.0 mph 21.9 mph N/A   Mostly Cloudy
4:35 PM 59.0 °F - 42.8 °F 55% 30.09 in 10.0 mi NW 17.3 mph - N/A   Overcast
4:55 PM 59.0 °F - 41.0 °F 51% 30.09 in 10.0 mi NW 18.4 mph 21.9 mph N/A   Overcast
5:15 PM 59.0 °F - 41.0 °F 51% 30.08 in 10.0 mi NW 17.3 mph 20.7 mph N/A   Overcast
5:35 PM 59.0 °F - 42.8 °F 55% 30.08 in 10.0 mi NW 17.3 mph - N/A   Overcast
5:55 PM 57.2 °F - 44.6 °F 63% 30.09 in 10.0 mi WNW 16.1 mph 23.0 mph N/A   Mostly Cloudy
6:15 PM 57.2 °F - 44.6 °F 63% 30.08 in 10.0 mi NW 13.8 mph 19.6 mph N/A   Mostly Cloudy
6:35 PM 57.2 °F - 44.6 °F 63% 30.08 in 10.0 mi WNW 12.7 mph - N/A   Partly Cloudy
6:55 PM 55.4 °F - 42.8 °F 63% 30.08 in 10.0 mi WNW 12.7 mph 16.1 mph N/A   Clear
7:15 PM 55.4 °F - 42.8 °F 63% 30.07 in 10.0 mi West 12.7 mph 16.1 mph N/A   Clear
7:35 PM 53.6 °F - 44.6 °F 72% 30.07 in 10.0 mi West 11.5 mph 16.1 mph N/A   Clear
7:55 PM 53.6 °F - 44.6 °F 72% 30.07 in 10.0 mi West 11.5 mph - N/A   Clear
8:15 PM 53.6 °F - 46.4 °F 77% 30.07 in 10.0 mi West 11.5 mph - N/A   Partly Cloudy
8:35 PM 53.6 °F - 46.4 °F 77% 30.07 in 10.0 mi WNW 11.5 mph - N/A   Mostly Cloudy
8:55 PM 53.6 °F - 44.6 °F 72% 30.08 in 10.0 mi WNW 12.7 mph - N/A   Mostly Cloudy
9:15 PM 53.6 °F - 44.6 °F 72% 30.08 in 10.0 mi WNW 13.8 mph - N/A   Mostly Cloudy
9:35 PM 53.6 °F - 46.4 °F 77% 30.09 in 10.0 mi NW 16.1 mph - N/A   Overcast
9:55 PM 53.6 °F - 48.2 °F 82% 30.10 in 10.0 mi NW 15.0 mph 21.9 mph N/A   Mostly Cloudy
10:15 PM 51.8 °F - 48.2 °F 88% 30.10 in 10.0 mi NW 16.1 mph - N/A   Overcast
10:35 PM 51.8 °F - 48.2 °F 88% 30.09 in 10.0 mi NW 16.1 mph 20.7 mph N/A   Mostly Cloudy
10:55 PM 51.8 °F - 48.2 °F 88% 30.09 in 10.0 mi NW 15.0 mph 21.9 mph N/A   Overcast
11:15 PM 51.8 °F - 46.4 °F 82% 30.09 in 10.0 mi NW 16.1 mph 21.9 mph N/A   Overcast
11:35 PM 51.8 °F - 46.4 °F 82% 30.09 in 10.0 mi NW 16.1 mph 21.9 mph N/A   Overcast
11:55 PM 51.8 °F - 46.4 °F 82% 30.10 in 10.0 mi WNW 15.0 mph 21.9 mph N/A   Overcast